[[{"header":{"parameterUnit":"m.s-1","parameterCategory":2,"la1":30.2991,"la2":30.254,"lo1":-89.0895,"lo2":-89.0444,"dy":0.0017,"dx":0.0017,"nx":28,"ny":28,"refTime":"2024-06-10T03:00:00:Z","depth":"0","parameterNumber":2,"parameterNumberName":"U-component_of_CURRENTS"},"data":[0,0,0,0,0,0,0,0,0,0,0,0,0,0,0,0,0,0,0,0,0,0,0,0,0,0,0,0,0,0,0,0,0,0,0,0,0,0,0,0,0,0,0,0,0,0,0,0,0,0,0,0,0,0,0,0,0,0,-0.3049,-0.305,0,-0.3089,-0.309,-0.309,-0.3096,-0.3096,-0.3096,-0.3096,-0.3026,-0.3024,-0.3022,0,0,0,0,0,0,0,0,0,0,0,0,0,-0.294,-0.2942,-0.3049,-0.305,-0.3051,-0.3089,-0.309,-0.309,-0.3096,-0.3096,-0.3096,-0.3096,-0.3027,-0.3024,-0.3022,0,0,0,0,0,0,0,0,0,0,0,0,0,-0.298,-0.2942,-0.3049,-0.3062,-0.3064,-0.3089,-0.309,-0.309,-0.3096,-0.3096,-0.3096,-0.3096,-0.3028,-0.3025,-0.3022,-0.3002,0,0,-0.3013,-0.3012,0,0,0,0,0,0,0,0,-0.2978,-0.2983,-0.3059,-0.3061,-0.3063,-0.3092,-0.3026,-0.3056,-0.3096,-0.3079,-0.3096,-0.3096,-0.3041,-0.3037,-0.3039,-0.2998,-0.2995,-0.3013,-0.3011,-0.301,-0.3009,0,0,0,0,0,0,0,-0.2975,-0.2981,-0.306,-0.306,-0.3063,-0.3054,-0.3059,-0.3032,-0.3053,-0.308,-0.3082,-0.3094,-0.3041,-0.3042,-0.3037,-0.2994,-0.3013,-0.301,-0.3008,-0.3007,-0.2977,-0.2977,0,0,0,0,0,0,-0.2982,-0.2979,-0.3059,-0.3062,-0.3025,-0.3056,-0.3062,-0.3079,-0.3056,-0.3055,-0.3094,-0.3094,-0.3047,-0.3041,-0.3035,-0.3064,-0.301,-0.3007,-0.3005,-0.2976,-0.2977,-0.2978,0,0,0,0,0,0,-0.2979,-0.2989,-0.3057,-0.3025,-0.3033,-0.3059,-0.3077,-0.308,-0.308,-0.3068,-0.3064,-0.3092,-0.3047,-0.3039,-0.3023,-0.3059,-0.3006,-0.3003,-0.2975,-0.2976,-0.2977,-0.3086,0,0,0,0,0,0,-0.2976,-0.2987,-0.2991,-0.3025,-0.3036,-0.3096,-0.3077,-0.308,-0.309,-0.309,-0.3065,-0.3059,-0.3046,-0.3028,-0.302,-0.3054,-0.3001,-0.2973,-0.2975,-0.2977,-0.3081,-0.3091,-0.3099,0,0,0,0,0,-0.2972,-0.2992,-0.2991,-0.3,-0.3044,-0.3098,-0.3103,-0.3116,-0.3089,-0.311,-0.3082,-0.3059,-0.3034,-0.3026,-0.3017,-0.3051,-0.2973,-0.2975,-0.2977,-0.3077,-0.3089,-0.3099,0,0,0,0,0,0,-0.2946,-0.2996,-0.2996,-0.3028,-0.3068,-0.3102,-0.3116,-0.3112,-0.3106,-0.3095,-0.3062,-0.3056,-0.306,-0.303,-0.3022,-0.3046,-0.3002,-0.3002,-0.3082,-0.3092,-0.3101,-0.3105,-0.2998,0,0,0,0,0,-0.2941,-0.2962,-0.3016,-0.3034,-0.3061,-0.3079,-0.3094,-0.3109,-0.3115,-0.3112,-0.3094,-0.307,-0.3062,-0.3056,-0.3043,-0.3044,-0.3036,-0.3061,-0.307,-0.3078,-0.3074,-0.3086,-0.3096,-0.2985,-0.2985,-0.2985,0,0,-0.293,-0.2961,-0.2969,-0.3029,-0.3053,-0.3106,-0.3088,-0.3127,-0.3159,-0.3102,-0.3119,-0.3096,-0.3067,-0.3086,-0.3085,-0.3065,-0.3114,-0.3081,-0.3088,-0.3079,-0.3089,-0.31,-0.311,-0.2986,-0.2986,-0.2986,0,0,-0.2927,-0.2955,-0.2976,-0.3027,-0.3082,-0.3113,-0.3125,-0.3167,-0.3179,-0.3193,-0.3166,-0.3166,-0.3138,-0.315,-0.3143,-0.3185,-0.3159,-0.3174,-0.3226,-0.3239,-0.3249,-0.3257,-0.3303,-0.3315,-0.3182,-0.3182,-0.3182,0,-0.2904,-0.2947,-0.299,-0.3042,-0.309,-0.3119,-0.3174,-0.3199,-0.3225,-0.3242,-0.3212,-0.3202,-0.3178,-0.3213,-0.3228,-0.321,-0.321,-0.3193,-0.3253,-0.326,-0.3267,-0.3312,-0.3323,-0.3188,-0.3187,-0.3187,-0.3186,0,-0.2925,-0.2973,-0.2999,-0.3075,-0.3141,-0.319,-0.3263,-0.3301,-0.3304,-0.3324,-0.3349,-0.332,-0.3314,-0.3316,-0.3277,-0.3319,-0.3305,-0.3264,-0.3231,-0.3285,-0.3329,-0.3339,-0.3196,-0.3194,-0.3192,-0.3191,0,0,-0.2805,-0.2979,-0.298,-0.304,-0.3166,-0.3217,-0.3307,-0.3391,-0.3434,-0.3444,-0.3487,-0.3475,-0.3447,-0.3435,-0.3402,-0.3408,-0.3466,-0.3349,-0.3347,-0.3406,-0.3514,-0.3538,-0.355,-0.3426,-0.3427,-0.3428,-0.3543,0,-0.2789,-0.2898,-0.3003,-0.3106,-0.3168,-0.3283,-0.3372,-0.3459,-0.3503,-0.3553,-0.3547,-0.356,-0.3499,-0.3488,-0.3489,-0.3454,-0.3487,-0.344,-0.3442,-0.3443,-0.3465,-0.356,-0.3139,-0.3207,-0.3552,-0.3554,-0.3555,0,-0.2729,-0.2829,-0.294,-0.3136,-0.3179,-0.3254,-0.3408,-0.3499,-0.3607,-0.3642,-0.367,-0.3654,-0.3668,-0.3595,-0.3601,-0.3565,-0.3548,-0.3531,-0.3534,-0.3516,-0.3483,-0.3198,-0.3211,-0.3041,-0.3569,-0.3568,-0.3567,0,-0.2564,-0.2761,-0.2853,-0.2918,-0.3153,-0.3224,-0.3342,-0.3494,-0.3596,-0.3682,-0.3734,-0.3749,-0.3746,-0.3723,-0.3689,-0.3635,-0.3706,-0.3632,-0.3663,-0.3665,-0.3288,-0.3256,-0.3134,-0.3662,-0.3662,-0.3661,-0.3661,0,-0.2467,-0.2528,-0.2781,-0.282,-0.2973,-0.3145,-0.3293,-0.3415,-0.3582,-0.3708,-0.3742,-0.3809,-0.3765,-0.3798,-0.3751,-0.376,-0.3767,-0.3699,-0.37,-0.3321,-0.3292,-0.3111,-0.3139,-0.3666,-0.3665,-0.3664,-0.3663,0,-0.2256,-0.2414,-0.2542,-0.28,-0.2891,-0.299,-0.3297,-0.3421,-0.3556,-0.3715,-0.3744,-0.3854,-0.3902,-0.3908,-0.39,-0.3851,-0.3744,-0.3863,-0.3455,-0.3407,-0.326,-0.3312,-0.3371,-0.3308,-0.3896,-0.3897,-0.3898,0,-0.2176,-0.2203,-0.2496,-0.2637,-0.2759,-0.296,-0.3139,-0.3372,-0.3519,-0.3745,-0.3816,-0.3914,-0.3977,-0.4025,-0.3886,-0.3861,-0.3813,-0.3553,-0.338,-0.3232,-0.3288,-0.3355,-0.33,-0.2924,-0.2917,-0.2912,-0.2907,0,-0.2038,-0.2124,-0.2283,-0.2518,-0.2724,-0.2963,-0.3199,-0.3304,-0.3579,-0.3679,-0.3827,-0.3882,-0.3919,-0.3668,-0.3667,-0.3603,-0.3354,-0.3447,-0.3321,-0.2578,-0.2602,-0.254,-0.2932,-0.2856,-0.2861,-0.2865,-0.2868,-0.287,-0.1967,-0.2037,-0.2223,-0.2432,-0.2693,-0.2885,-0.2939,-0.3176,-0.3317,-0.3346,-0.3593,-0.3448,-0.3273,-0.3158,-0.3156,-0.2806,-0.3112,-0.2592,-0.2693,-0.2797,-0.2651,-0.302,-0.2946,-0.2951,-0.2956,-0.296,-0.2964,0,-0.1865,-0.1944,-0.2139,-0.2369,-0.2526,-0.2698,-0.2937,-0.2887,-0.2904,-0.2929,-0.2925,-0.2568,-0.2332,-0.2244,-0.1986,-0.1924,-0.1877,-0.1941,-0.1762,-0.1766,-0.2004,-0.1861,-0.1508,-0.1508,-0.1509,-0.1509,-0.1509,-0.1509,-0.1831,-0.1902,-0.1965,-0.2116,-0.2264,-0.2283,-0.2328,-0.2273,-0.2192,-0.1916,-0.1657,-0.1592,-0.1602,-0.1514,-0.1314,-0.1278,-0.128,-0.1291,-0.1581,-0.1495,-0.1556,-0.1613,-0.1473,-0.1046,-0.1046,-0.1028,-0.1028,-0.1028]},{"header":{"parameterUnit":"m.s-1","parameterCategory":2,"la1":30.2991,"la2":30.254,"lo1":-89.0895,"lo2":-89.0444,"dy":0.0017,"dx":0.0017,"nx":28,"ny":28,"refTime":"2024-06-10T03:00:00:Z","depth":"0","parameterNumber":3,"parameterNumberName":"V-component_of_CURRENTS"},"data":[0,0,0,0,0,0,0,0,0,0,0,0,0,0,0,0,0,0,0,0,0,0,0,0,0,0,0,0,0,0,0,0,0,0,0,0,0,0,0,0,0,0,0,0,0,0,0,0,0,0,0,0,0,0,0,0,0,0,-0.0455,-0.0454,0,-0.0357,-0.0355,-0.0354,-0.0283,-0.0282,-0.0282,-0.0282,-0.0155,-0.0153,-0.015,0,0,0,0,0,0,0,0,0,0,0,0,0,-0.05,-0.05,-0.0455,-0.0454,-0.0453,-0.0357,-0.0355,-0.0354,-0.0283,-0.0282,-0.0282,-0.0282,-0.0156,-0.0153,-0.0149,0,0,0,0,0,0,0,0,0,0,0,0,0,-0.0447,-0.05,-0.0455,-0.0408,-0.0403,-0.0357,-0.0355,-0.0353,-0.0283,-0.0282,-0.0282,-0.0281,-0.0158,-0.0153,-0.0149,-0.0132,0,0,-0.0135,-0.0133,0,0,0,0,0,0,0,0,-0.045,-0.0445,-0.0416,-0.0411,-0.0405,-0.0334,-0.0325,-0.0279,-0.0283,-0.0326,-0.0282,-0.0281,-0.0215,-0.0205,-0.0185,-0.0126,-0.0121,-0.0135,-0.0132,-0.013,-0.0129,0,0,0,0,0,0,0,-0.0454,-0.0449,-0.0413,-0.0415,-0.0408,-0.0364,-0.0357,-0.0316,-0.0272,-0.0322,-0.0317,-0.0311,-0.0211,-0.0189,-0.0181,-0.0119,-0.0135,-0.0131,-0.0128,-0.0126,-0.0043,-0.0044,0,0,0,0,0,0,-0.0476,-0.0453,-0.0416,-0.0411,-0.043,-0.0364,-0.0356,-0.0355,-0.0273,-0.0261,-0.0311,-0.0308,-0.0197,-0.0187,-0.0177,-0.0156,-0.013,-0.0126,-0.0123,-0.0043,-0.0044,-0.0044,0,0,0,0,0,0,-0.0478,-0.0474,-0.042,-0.0431,-0.0421,-0.0365,-0.0364,-0.0354,-0.0332,-0.0265,-0.0252,-0.0302,-0.0197,-0.0183,-0.0148,-0.015,-0.0124,-0.0119,-0.0042,-0.0043,-0.0044,-0.0112,0,0,0,0,0,0,-0.048,-0.0476,-0.0476,-0.0433,-0.0422,-0.0411,-0.0365,-0.0352,-0.033,-0.0325,-0.0253,-0.0241,-0.0195,-0.0155,-0.0143,-0.0144,-0.0116,-0.0042,-0.0043,-0.0044,-0.0109,-0.0115,-0.012,0,0,0,0,0,-0.0482,-0.0482,-0.0477,-0.0472,-0.0427,-0.0412,-0.0402,-0.0358,-0.0331,-0.0333,-0.028,-0.0243,-0.0153,-0.0152,-0.0138,-0.0137,-0.0041,-0.0042,-0.0044,-0.0107,-0.0114,-0.012,0,0,0,0,0,0,-0.0503,-0.0474,-0.0467,-0.046,-0.045,-0.0401,-0.039,-0.0365,-0.0324,-0.0311,-0.0247,-0.0231,-0.02,-0.0164,-0.0165,-0.0118,-0.0092,-0.009,-0.0144,-0.015,-0.0156,-0.017,-0.0112,0,0,0,0,0,-0.0513,-0.0504,-0.0483,-0.0481,-0.0477,-0.0438,-0.0422,-0.0399,-0.0359,-0.034,-0.029,-0.0237,-0.0194,-0.0171,-0.0128,-0.0103,-0.0099,-0.0095,-0.0101,-0.0106,-0.0109,-0.0104,-0.011,-0.0048,-0.0048,-0.0048,0,0,-0.0521,-0.0504,-0.05,-0.0485,-0.0467,-0.0467,-0.0426,-0.0412,-0.0407,-0.0333,-0.0303,-0.0254,-0.0193,-0.0163,-0.0146,-0.0132,-0.0129,-0.0107,-0.0112,-0.0112,-0.0106,-0.0112,-0.0117,-0.0049,-0.0049,-0.0048,0,0,-0.0535,-0.0524,-0.0524,-0.0521,-0.0505,-0.0485,-0.0489,-0.0452,-0.0431,-0.0405,-0.0347,-0.0303,-0.0241,-0.0196,-0.0165,-0.0177,-0.0159,-0.0167,-0.0202,-0.0198,-0.0203,-0.0207,-0.0248,-0.0255,-0.0169,-0.0169,-0.0169,0,-0.0549,-0.0551,-0.0524,-0.053,-0.0534,-0.0501,-0.0517,-0.049,-0.0445,-0.0442,-0.0407,-0.0317,-0.0254,-0.022,-0.0213,-0.0187,-0.0203,-0.0182,-0.0206,-0.021,-0.0214,-0.0253,-0.026,-0.0172,-0.0172,-0.0172,-0.0171,0,-0.057,-0.0573,-0.0576,-0.0575,-0.0576,-0.0587,-0.0564,-0.0558,-0.0528,-0.0503,-0.0469,-0.0383,-0.0334,-0.0302,-0.025,-0.0243,-0.0255,-0.0216,-0.0193,-0.0224,-0.0264,-0.027,-0.0177,-0.0176,-0.0175,-0.0174,0,0,-0.06,-0.0594,-0.0596,-0.0623,-0.0608,-0.0624,-0.0617,-0.0622,-0.0642,-0.0573,-0.0586,-0.0476,-0.0436,-0.0397,-0.033,-0.0305,-0.0332,-0.0272,-0.0271,-0.032,-0.0369,-0.0249,-0.0245,-0.0304,-0.0305,-0.0305,-0.0402,0,-0.0633,-0.0669,-0.0644,-0.0692,-0.0721,-0.07,-0.0712,-0.0708,-0.0689,-0.0692,-0.0601,-0.0577,-0.0472,-0.0451,-0.0407,-0.0348,-0.0346,-0.0312,-0.0324,-0.0325,-0.0219,-0.0246,-0.0115,-0.0177,-0.0408,-0.0409,-0.0409,0,-0.0661,-0.0693,-0.0742,-0.0788,-0.08,-0.0815,-0.0861,-0.0862,-0.0845,-0.083,-0.0779,-0.0719,-0.0652,-0.0563,-0.049,-0.048,-0.0433,-0.0386,-0.0389,-0.0251,-0.0214,-0.0174,-0.0179,0.0017,-0.0419,-0.0418,-0.0417,0,-0.0721,-0.0759,-0.0813,-0.0827,-0.0865,-0.0889,-0.0904,-0.0908,-0.0941,-0.0915,-0.0938,-0.0849,-0.0816,-0.0728,-0.0596,-0.0562,-0.054,-0.0486,-0.035,-0.0344,-0.0218,-0.0197,-0.0031,-0.046,-0.046,-0.0459,-0.0459,0,-0.0764,-0.0809,-0.0852,-0.0888,-0.0987,-0.0967,-0.105,-0.105,-0.1064,-0.1129,-0.101,-0.1038,-0.0853,-0.0803,-0.0678,-0.0532,-0.0609,-0.0364,-0.0348,-0.024,-0.0221,-0.0029,0.0023,-0.0463,-0.0462,-0.0461,-0.0461,0,-0.0798,-0.0819,-0.0913,-0.0985,-0.1014,-0.1085,-0.1158,-0.1228,-0.1204,-0.1282,-0.128,-0.1205,-0.111,-0.0942,-0.0815,-0.064,-0.0389,-0.0455,-0.0352,-0.0316,0.0065,0.0107,0.0214,0.0307,-0.0311,-0.0308,-0.0306,0,-0.0816,-0.0854,-0.0997,-0.1099,-0.1132,-0.1225,-0.1306,-0.1304,-0.1374,-0.1397,-0.1453,-0.1369,-0.1285,-0.103,-0.0715,-0.0474,-0.0353,-0.0222,-0.0083,0.011,0.0165,0.0173,0.0243,0.0014,0.0018,0.0022,0.0025,0,-0.0864,-0.0913,-0.102,-0.1218,-0.1337,-0.1457,-0.1548,-0.1606,-0.1616,-0.1631,-0.1647,-0.1563,-0.1264,-0.086,-0.0486,-0.0337,-0.0035,-0.0132,0.0045,0.0428,0.0464,0.0554,0.0008,0.0059,0.0056,0.0053,0.0052,0.005,-0.0925,-0.1029,-0.118,-0.1367,-0.1529,-0.166,-0.1694,-0.1744,-0.1786,-0.1648,-0.1677,-0.1332,-0.0884,-0.0287,-0.0141,0.035,0.022,0.0535,0.0552,0.0528,0.0703,0.0229,0.0337,0.0335,0.0334,0.0332,0.0331,0,-0.099,-0.1114,-0.1315,-0.1541,-0.1712,-0.1746,-0.185,-0.1789,-0.1752,-0.1469,-0.1307,-0.0649,-0.014,0.0286,0.0856,0.1063,0.1071,0.1126,0.1178,0.1205,0.0784,0.0895,0.1158,0.1158,0.1158,0.1158,0.1158,0.1157,-0.1048,-0.1219,-0.133,-0.1637,-0.178,-0.1866,-0.1876,-0.1726,-0.1472,-0.0892,-0.0343,0.0017,0.0454,0.1125,0.1598,0.1623,0.175,0.1715,0.173,0.1485,0.1432,0.1381,0.1504,0.1891,0.1892,0.2191,0.2194,0.2197]}],[{"header":{"parameterUnit":"m.s-1","parameterCategory":2,"la1":30.2991,"la2":30.254,"lo1":-89.0895,"lo2":-89.0444,"dy":0.0017,"dx":0.0017,"nx":28,"ny":28,"refTime":"2024-06-10T03:00:00:Z","depth":"2","parameterNumber":2,"parameterNumberName":"U-component_of_CURRENTS"},"data":[0,0,0,0,0,0,0,0,0,0,0,0,0,0,0,0,0,0,0,0,0,0,0,0,0,0,0,0,0,0,0,0,0,0,0,0,0,0,0,0,0,0,0,0,0,0,0,0,0,0,0,0,0,0,0,0,0,0,-0.2736,-0.2737,0,-0.2756,-0.2755,-0.2754,-0.2766,-0.2768,-0.2769,-0.277,-0.2705,-0.2702,-0.2699,0,0,0,0,0,0,0,0,0,0,0,0,0,-0.255,-0.2554,-0.2736,-0.2737,-0.2739,-0.2756,-0.2755,-0.2754,-0.2766,-0.2768,-0.2769,-0.277,-0.2706,-0.2702,-0.2699,0,0,0,0,0,0,0,0,0,0,0,0,0,-0.2595,-0.2555,-0.2736,-0.2756,-0.2759,-0.2756,-0.2755,-0.2754,-0.2766,-0.2768,-0.2769,-0.2771,-0.2707,-0.2703,-0.2698,-0.2636,0,0,-0.2685,-0.2683,0,0,0,0,0,0,0,0,-0.2593,-0.26,-0.2752,-0.2755,-0.2758,-0.2772,-0.2667,-0.2715,-0.2765,-0.275,-0.277,-0.2772,-0.2726,-0.272,-0.2703,-0.2633,-0.263,-0.2685,-0.2682,-0.2681,-0.2679,0,0,0,0,0,0,0,-0.259,-0.2599,-0.2731,-0.2753,-0.2757,-0.2711,-0.2719,-0.2674,-0.2716,-0.2751,-0.2756,-0.2777,-0.2726,-0.2707,-0.2702,-0.2629,-0.2685,-0.2681,-0.2679,-0.2677,-0.257,-0.257,0,0,0,0,0,0,-0.2619,-0.2597,-0.2731,-0.2733,-0.2692,-0.2714,-0.2723,-0.2755,-0.2719,-0.2719,-0.2776,-0.2778,-0.2714,-0.2707,-0.27,-0.2662,-0.2681,-0.2677,-0.2674,-0.257,-0.257,-0.257,0,0,0,0,0,0,-0.2615,-0.2631,-0.273,-0.2674,-0.2685,-0.2718,-0.2752,-0.2755,-0.2766,-0.274,-0.2737,-0.279,-0.2715,-0.2706,-0.2663,-0.2658,-0.2675,-0.2671,-0.2571,-0.257,-0.257,-0.2561,0,0,0,0,0,0,-0.261,-0.263,-0.2634,-0.2677,-0.269,-0.2733,-0.2752,-0.2754,-0.2781,-0.2785,-0.2751,-0.2745,-0.2716,-0.2669,-0.2658,-0.2653,-0.2667,-0.2571,-0.2571,-0.257,-0.2562,-0.2561,-0.256,0,0,0,0,0,-0.2603,-0.2627,-0.2634,-0.265,-0.2706,-0.2734,-0.2733,-0.2753,-0.2781,-0.2771,-0.2749,-0.2748,-0.266,-0.2664,-0.2652,-0.2645,-0.2571,-0.2571,-0.257,-0.2562,-0.2561,-0.256,0,0,0,0,0,0,-0.2532,-0.2633,-0.2642,-0.2688,-0.2707,-0.2741,-0.275,-0.2765,-0.2741,-0.2751,-0.2725,-0.2715,-0.2698,-0.2663,-0.2669,-0.2616,-0.2623,-0.2619,-0.2621,-0.2619,-0.2618,-0.26,-0.2664,0,0,0,0,0,-0.2523,-0.2565,-0.2635,-0.2652,-0.269,-0.2719,-0.2729,-0.2746,-0.275,-0.2745,-0.2731,-0.2706,-0.2678,-0.2643,-0.2628,-0.2564,-0.2603,-0.256,-0.2558,-0.2557,-0.2536,-0.2575,-0.2576,-0.2568,-0.2568,-0.2568,0,0,-0.2498,-0.2552,-0.2574,-0.2638,-0.2668,-0.2696,-0.2728,-0.2763,-0.2733,-0.2737,-0.2701,-0.2718,-0.2672,-0.2628,-0.2613,-0.2592,-0.2596,-0.2557,-0.2556,-0.2534,-0.2575,-0.2576,-0.2576,-0.2567,-0.2567,-0.2568,0,0,-0.2464,-0.2531,-0.2557,-0.2595,-0.2656,-0.2678,-0.27,-0.2753,-0.2727,-0.2703,-0.2709,-0.2697,-0.2665,-0.2607,-0.2576,-0.2546,-0.2618,-0.258,-0.2515,-0.2554,-0.2555,-0.2556,-0.2679,-0.2691,-0.2542,-0.2542,-0.2542,0,-0.2419,-0.2459,-0.2553,-0.2591,-0.2601,-0.2682,-0.268,-0.2674,-0.2683,-0.2637,-0.2697,-0.2689,-0.2637,-0.2565,-0.2544,-0.2538,-0.2625,-0.2523,-0.2554,-0.2555,-0.2556,-0.2681,-0.2694,-0.2541,-0.2541,-0.2542,-0.2542,0,-0.2411,-0.2438,-0.2467,-0.2535,-0.2555,-0.2573,-0.261,-0.2594,-0.2614,-0.2612,-0.2603,-0.2598,-0.2577,-0.2578,-0.2531,-0.251,-0.2599,-0.2582,-0.2559,-0.2557,-0.2689,-0.2703,-0.2541,-0.2541,-0.2541,-0.2541,0,0,-0.2306,-0.243,-0.2432,-0.2444,-0.2521,-0.2542,-0.2491,-0.2451,-0.2446,-0.2483,-0.2489,-0.242,-0.2491,-0.2459,-0.2465,-0.247,-0.2544,-0.2518,-0.252,-0.2644,-0.2734,-0.2686,-0.2698,-0.2565,-0.2565,-0.2565,-0.2851,0,-0.2241,-0.2278,-0.2342,-0.2343,-0.237,-0.2406,-0.237,-0.2351,-0.2364,-0.241,-0.2415,-0.2471,-0.2426,-0.2484,-0.2466,-0.2559,-0.2571,-0.2473,-0.2712,-0.2719,-0.2678,-0.2705,-0.221,-0.2411,-0.2865,-0.2867,-0.2869,0,-0.219,-0.2218,-0.2209,-0.2251,-0.2271,-0.2289,-0.226,-0.2247,-0.2286,-0.231,-0.2363,-0.2456,-0.2475,-0.249,-0.259,-0.256,-0.2609,-0.2683,-0.2696,-0.2647,-0.2692,-0.2471,-0.242,-0.2892,-0.289,-0.2889,-0.2887,0,-0.2061,-0.2114,-0.2087,-0.2113,-0.219,-0.2159,-0.2195,-0.2211,-0.2227,-0.2309,-0.2429,-0.2461,-0.261,-0.2637,-0.2738,-0.269,-0.2941,-0.2884,-0.2896,-0.29,-0.2511,-0.2476,-0.2927,-0.2926,-0.2926,-0.2925,-0.2924,0,-0.1966,-0.1954,-0.2051,-0.2058,-0.2051,-0.2127,-0.2137,-0.2156,-0.2279,-0.2391,-0.2431,-0.2581,-0.2663,-0.2816,-0.2821,-0.2937,-0.2992,-0.2898,-0.2945,-0.2504,-0.2467,-0.2882,-0.2872,-0.2936,-0.2933,-0.2931,-0.2929,0,-0.1855,-0.1904,-0.1905,-0.1975,-0.2009,-0.2025,-0.2166,-0.2221,-0.2323,-0.2508,-0.2573,-0.2744,-0.292,-0.3015,-0.3151,-0.3093,-0.3166,-0.3177,-0.2706,-0.2687,-0.3091,-0.3078,-0.3214,-0.3215,-0.3215,-0.3215,-0.3215,0,-0.1808,-0.1797,-0.1864,-0.1907,-0.1957,-0.2018,-0.2101,-0.2216,-0.2309,-0.2604,-0.2725,-0.297,-0.3016,-0.3223,-0.3103,-0.3111,-0.3282,-0.2803,-0.2531,-0.3075,-0.3109,-0.3096,-0.3084,-0.2066,-0.2057,-0.2049,-0.2043,0,-0.173,-0.1752,-0.1783,-0.1843,-0.1935,-0.2026,-0.216,-0.2232,-0.2436,-0.2548,-0.2742,-0.28,-0.2939,-0.2671,-0.2731,-0.2682,-0.2738,-0.2653,-0.3329,-0.2066,-0.2012,-0.204,-0.2061,-0.1975,-0.1981,-0.1986,-0.199,-0.1993,-0.1688,-0.1692,-0.1735,-0.1779,-0.1888,-0.1996,-0.1995,-0.2154,-0.2233,-0.2316,-0.2529,-0.2431,-0.2414,-0.2135,-0.2118,-0.2132,-0.233,-0.2204,-0.2218,-0.2242,-0.2054,-0.2001,-0.1934,-0.194,-0.1946,-0.195,-0.1955,0,-0.1617,-0.1636,-0.1684,-0.1721,-0.1765,-0.1865,-0.1999,-0.1935,-0.1922,-0.1981,-0.1949,-0.164,-0.1405,-0.153,-0.1288,-0.1318,-0.1212,-0.1403,-0.1161,-0.1224,-0.1282,-0.1037,-0.0653,-0.0652,-0.065,-0.0649,0,0,-0.1588,-0.1582,-0.1582,-0.1565,-0.16,-0.1566,-0.158,-0.1517,-0.145,-0.1282,-0.1133,-0.1101,-0.122,-0.083,-0.0801,-0.068,-0.0957,-0.0652,-0.1645,-0.1401,-0.1457,-0.1654,-0.1339,0,0,0,0,0]},{"header":{"parameterUnit":"m.s-1","parameterCategory":2,"la1":30.2991,"la2":30.254,"lo1":-89.0895,"lo2":-89.0444,"dy":0.0017,"dx":0.0017,"nx":28,"ny":28,"refTime":"2024-06-10T03:00:00:Z","depth":"2","parameterNumber":3,"parameterNumberName":"V-component_of_CURRENTS"},"data":[0,0,0,0,0,0,0,0,0,0,0,0,0,0,0,0,0,0,0,0,0,0,0,0,0,0,0,0,0,0,0,0,0,0,0,0,0,0,0,0,0,0,0,0,0,0,0,0,0,0,0,0,0,0,0,0,0,0,-0.0176,-0.0175,0,-0.0069,-0.0067,-0.0065,-0.0009,-0.001,-0.001,-0.001,0.0116,0.012,0.0124,0,0,0,0,0,0,0,0,0,0,0,0,0,-0.0265,-0.0264,-0.0176,-0.0175,-0.0174,-0.0069,-0.0067,-0.0065,-0.0009,-0.001,-0.001,-0.0011,0.0115,0.0119,0.0124,0,0,0,0,0,0,0,0,0,0,0,0,0,-0.0194,-0.0263,-0.0176,-0.0138,-0.0134,-0.0069,-0.0067,-0.0064,-0.0009,-0.001,-0.001,-0.0011,0.0113,0.0119,0.0125,0.0173,0,0,0.0142,0.0144,0,0,0,0,0,0,0,0,-0.0198,-0.019,-0.0144,-0.014,-0.0136,-0.0058,-0.0052,0.0014,-0.0009,-0.005,-0.001,-0.0011,0.0056,0.0067,0.0096,0.0179,0.0185,0.0142,0.0146,0.0148,0.015,0,0,0,0,0,0,0,-0.0203,-0.0194,-0.0127,-0.0144,-0.0138,-0.0104,-0.0094,-0.0039,0.0011,-0.0047,-0.0044,-0.0041,0.006,0.0091,0.01,0.0186,0.0142,0.0147,0.0151,0.0153,0.0326,0.0327,0,0,0,0,0,0,-0.023,-0.0199,-0.0131,-0.0125,-0.0176,-0.0102,-0.0091,-0.0078,0.001,0.002,-0.004,-0.0039,0.0082,0.0093,0.0104,0.0205,0.0148,0.0154,0.0157,0.0324,0.0326,0.0327,0,0,0,0,0,0,-0.0232,-0.0225,-0.0135,-0.0165,-0.0152,-0.0101,-0.0085,-0.0075,-0.0056,0.0013,0.0025,-0.0034,0.0081,0.0096,0.0162,0.0208,0.0156,0.0161,0.0323,0.0325,0.0326,0.0381,0,0,0,0,0,0,-0.0235,-0.0226,-0.0228,-0.0166,-0.0151,-0.0091,-0.0085,-0.0073,-0.0055,-0.0052,0.0023,0.0034,0.0082,0.0153,0.0167,0.0215,0.0166,0.0322,0.0324,0.0326,0.0378,0.0384,0.039,0,0,0,0,0,-0.0239,-0.0236,-0.0228,-0.022,-0.0154,-0.0091,-0.0078,-0.0042,-0.0055,-0.0031,0.0016,0.0031,0.0177,0.0159,0.0176,0.0226,0.032,0.0323,0.0326,0.0375,0.0383,0.039,0,0,0,0,0,0,-0.0274,-0.0229,-0.0219,-0.0203,-0.0152,-0.0084,-0.0072,-0.0052,0.0004,-0.0004,0.0054,0.0072,0.014,0.0168,0.0147,0.0278,0.0248,0.0254,0.028,0.0288,0.0294,0.0296,0.0171,0,0,0,0,0,-0.0285,-0.0273,-0.0216,-0.0204,-0.0185,-0.0134,-0.0111,-0.0083,-0.003,-0.0007,0.0041,0.0096,0.0168,0.0212,0.0263,0.0344,0.0334,0.0382,0.0388,0.0393,0.0404,0.044,0.045,0.0336,0.0336,0.0336,0,0,-0.03,-0.0274,-0.0269,-0.0212,-0.0177,-0.0133,-0.012,-0.0086,-0.0022,-0.0002,0.008,0.011,0.0186,0.0278,0.0312,0.0311,0.0411,0.0397,0.0401,0.0409,0.0444,0.0455,0.0465,0.0338,0.0337,0.0337,0,0,-0.0317,-0.0296,-0.029,-0.0247,-0.02,-0.015,-0.0147,-0.0083,-0.0023,0.0052,0.0087,0.0157,0.0238,0.0336,0.039,0.0462,0.0428,0.0448,0.051,0.0545,0.0555,0.0563,0.0522,0.0526,0.0471,0.0471,0.0471,0,-0.0341,-0.0318,-0.0276,-0.025,-0.0225,-0.0162,-0.0139,-0.0044,0.0037,0.0082,0.0077,0.0219,0.0288,0.0439,0.047,0.0485,0.0444,0.048,0.0554,0.0562,0.057,0.0526,0.0531,0.0474,0.0474,0.0473,0.0473,0,-0.0343,-0.0324,-0.0315,-0.0259,-0.0216,-0.0186,-0.0072,-0.0018,0.003,0.011,0.023,0.0337,0.0412,0.0462,0.0499,0.0604,0.0531,0.0541,0.0535,0.0585,0.0534,0.0538,0.0478,0.0477,0.0476,0.0476,0,0,-0.0397,-0.0334,-0.0329,-0.0318,-0.0226,-0.0195,-0.0084,0.0029,0.0075,0.0207,0.0277,0.0468,0.0486,0.0548,0.0614,0.0685,0.0716,0.0631,0.0632,0.0589,0.0707,0.0788,0.0798,0.0712,0.0714,0.0716,0.0632,0,-0.0414,-0.0387,-0.0339,-0.0304,-0.0284,-0.0201,-0.0112,-0.0001,0.0099,0.0188,0.0371,0.0458,0.0544,0.0556,0.0657,0.0683,0.0733,0.0733,0.0665,0.0663,0.0731,0.0811,0.073,0.0662,0.0635,0.0636,0.0636,0,-0.0426,-0.041,-0.0391,-0.0346,-0.0334,-0.0302,-0.0213,-0.0123,0.0053,0.012,0.0264,0.0373,0.0547,0.0578,0.0716,0.0686,0.0699,0.0734,0.0731,0.0799,0.0756,0.0617,0.0669,0.0642,0.0642,0.0641,0.0641,0,-0.0488,-0.0444,-0.0441,-0.0421,-0.035,-0.0342,-0.0306,-0.0168,-0.0098,0.0064,0.0094,0.0317,0.0378,0.0496,0.0614,0.0629,0.0697,0.0725,0.0818,0.0818,0.0741,0.0735,0.0804,0.0804,0.0804,0.0805,0.0805,0,-0.0516,-0.0515,-0.0485,-0.0485,-0.0499,-0.0432,-0.042,-0.0346,-0.0239,-0.0184,0.0038,0.0119,0.035,0.0449,0.056,0.0701,0.0655,0.0846,0.0836,0.0754,0.0751,0.0736,0.0729,0.0801,0.0802,0.0803,0.0803,0,-0.0572,-0.0543,-0.0551,-0.0525,-0.053,-0.0548,-0.0526,-0.0512,-0.0406,-0.0341,-0.0294,-0.0067,0.0059,0.0271,0.0415,0.0606,0.0742,0.0782,0.0647,0.0632,0.0837,0.0834,0.0907,0.091,0.0912,0.0914,0.0916,0,-0.0596,-0.0602,-0.0612,-0.0648,-0.0651,-0.0672,-0.0693,-0.0608,-0.0572,-0.0445,-0.0412,-0.0268,-0.0091,0.0187,0.0441,0.066,0.068,0.077,0.0882,0.0882,0.0863,0.0856,0.085,0.0739,0.0739,0.0739,0.0739,0,-0.0651,-0.0656,-0.068,-0.0755,-0.0803,-0.0831,-0.0841,-0.0825,-0.0728,-0.0619,-0.0489,-0.0343,-0.0099,0.0192,0.0493,0.0621,0.0763,0.079,0.0799,0.0777,0.0733,0.0712,0.0709,0.0741,0.074,0.074,0.074,0.074,-0.0708,-0.0755,-0.0803,-0.0871,-0.0929,-0.0976,-0.0983,-0.0927,-0.0841,-0.0625,-0.0543,-0.0256,-0.0049,0.0446,0.0573,0.072,0.078,0.0895,0.0889,0.0884,0.0932,0.0903,0.0942,0.0943,0.0944,0.0945,0.0945,0,-0.0779,-0.0839,-0.0921,-0.0993,-0.1064,-0.1071,-0.1066,-0.1009,-0.0873,-0.06,-0.0383,-0.0088,0.0221,0.0395,0.0644,0.0852,0.0784,0.0861,0.0739,0.0739,0.0738,0.0775,0.0744,0.0744,0.0744,0.0744,0,0,-0.0828,-0.0924,-0.097,-0.1097,-0.1149,-0.1203,-0.1193,-0.1039,-0.0818,-0.0476,-0.0182,0.0115,0.0327,0.0479,0.0597,0.0688,0.0676,0.0676,0.0824,0.0663,0.066,0.0746,0.0803,0,0,0,0,0]}],[{"header":{"parameterUnit":"m.s-1","parameterCategory":2,"la1":30.2991,"la2":30.254,"lo1":-89.0895,"lo2":-89.0444,"dy":0.0017,"dx":0.0017,"nx":28,"ny":28,"refTime":"2024-06-10T03:00:00:Z","depth":"4","parameterNumber":2,"parameterNumberName":"U-component_of_CURRENTS"},"data":[0,0,0,0,0,0,0,0,0,0,0,0,0,0,0,0,0,0,0,0,0,0,0,0,0,0,0,0,0,0,0,0,0,0,0,0,0,0,0,0,0,0,0,0,0,0,0,0,0,0,0,0,0,0,0,0,0,0,-0.0752,-0.0751,0,-0.0744,-0.0744,-0.0745,-0.0757,-0.0757,-0.0757,-0.0757,-0.0865,-0.0867,-0.087,0,0,0,0,0,0,0,0,0,0,0,0,0,-0.0965,-0.096,-0.0752,-0.0751,-0.0751,-0.0744,-0.0744,-0.0745,-0.0757,-0.0757,-0.0757,-0.0757,-0.0864,-0.0867,-0.087,0,0,0,0,0,0,0,0,0,0,0,0,0,-0.091,-0.0958,-0.0752,-0.0753,-0.0753,-0.0744,-0.0744,-0.0745,-0.0757,-0.0757,-0.0757,-0.0757,-0.0863,-0.0867,-0.0871,-0.0896,0,0,-0.0884,-0.0886,0,0,0,0,0,0,0,0,-0.0913,-0.0902,-0.0753,-0.0753,-0.0752,-0.0748,-0.0859,-0.08,-0.0757,-0.076,-0.0757,-0.0757,-0.0834,-0.084,-0.0843,-0.0901,-0.0906,-0.0884,-0.0887,-0.0889,-0.089,0,0,0,0,0,0,0,-0.0916,-0.0904,-0.0753,-0.0753,-0.0752,-0.0818,-0.0809,-0.0848,-0.0802,-0.076,-0.0759,-0.0752,-0.0835,-0.0839,-0.0846,-0.0907,-0.0884,-0.0888,-0.089,-0.0892,-0.1019,-0.102,0,0,0,0,0,0,-0.0897,-0.0905,-0.0753,-0.0752,-0.083,-0.0813,-0.0803,-0.0753,-0.0799,-0.0804,-0.0752,-0.0752,-0.0831,-0.0841,-0.085,-0.0928,-0.0889,-0.0893,-0.0895,-0.1018,-0.1019,-0.102,0,0,0,0,0,0,-0.0901,-0.0882,-0.0753,-0.0829,-0.0817,-0.0807,-0.0752,-0.0752,-0.0779,-0.0791,-0.0799,-0.078,-0.0832,-0.0844,-0.0915,-0.0931,-0.0894,-0.0898,-0.1017,-0.1019,-0.102,-0.1056,0,0,0,0,0,0,-0.0907,-0.0883,-0.0885,-0.0826,-0.0811,-0.0748,-0.0752,-0.0752,-0.0771,-0.0772,-0.0818,-0.0826,-0.0833,-0.0908,-0.0919,-0.0936,-0.0902,-0.1016,-0.1018,-0.1019,-0.1054,-0.1058,-0.1062,0,0,0,0,0,-0.0914,-0.0902,-0.0884,-0.0869,-0.0797,-0.0747,-0.0747,-0.0747,-0.0772,-0.0775,-0.0828,-0.0825,-0.0924,-0.0914,-0.0925,-0.0944,-0.1016,-0.1018,-0.1019,-0.1052,-0.1058,-0.1062,0,0,0,0,0,0,-0.1005,-0.0899,-0.0879,-0.0838,-0.0796,-0.0748,-0.0761,-0.0765,-0.0808,-0.0833,-0.0856,-0.0868,-0.093,-0.0936,-0.0924,-0.0982,-0.0962,-0.0966,-0.0983,-0.0988,-0.0992,-0.0989,-0.0905,0,0,0,0,0,-0.1019,-0.0983,-0.0891,-0.0871,-0.0837,-0.0809,-0.0808,-0.0801,-0.0809,-0.0828,-0.0871,-0.0913,-0.0942,-0.0967,-0.0998,-0.1046,-0.1039,-0.1058,-0.1062,-0.1066,-0.107,-0.107,-0.1075,-0.1026,-0.1026,-0.1026,0,0,-0.105,-0.0995,-0.0976,-0.0891,-0.0857,-0.0823,-0.0809,-0.0797,-0.0813,-0.0837,-0.0913,-0.0943,-0.096,-0.1007,-0.1032,-0.1019,-0.1078,-0.1068,-0.1071,-0.1073,-0.1073,-0.1077,-0.1082,-0.1028,-0.1028,-0.1027,0,0,-0.1085,-0.103,-0.1003,-0.0957,-0.0904,-0.0876,-0.0875,-0.0844,-0.0867,-0.0912,-0.0945,-0.0988,-0.1038,-0.1055,-0.1064,-0.1113,-0.1105,-0.1122,-0.1142,-0.1143,-0.1147,-0.115,-0.1155,-0.1159,-0.1119,-0.1119,-0.1119,0,-0.1141,-0.1073,-0.1,-0.0959,-0.0947,-0.0896,-0.0884,-0.0881,-0.0907,-0.0949,-0.0937,-0.1031,-0.1048,-0.1102,-0.111,-0.1121,-0.1127,-0.1122,-0.1148,-0.1151,-0.1154,-0.1158,-0.1162,-0.1121,-0.1121,-0.1121,-0.1121,0,-0.1119,-0.1094,-0.1072,-0.0997,-0.0982,-0.0959,-0.0917,-0.0952,-0.0976,-0.0984,-0.1056,-0.1072,-0.1122,-0.1126,-0.113,-0.1172,-0.1172,-0.1157,-0.1134,-0.1161,-0.1164,-0.1167,-0.1124,-0.1123,-0.1123,-0.1122,0,0,-0.1164,-0.1077,-0.1076,-0.1066,-0.1005,-0.0984,-0.1014,-0.1022,-0.1063,-0.1079,-0.1137,-0.1164,-0.1179,-0.119,-0.1206,-0.1202,-0.122,-0.1192,-0.1191,-0.1196,-0.1235,-0.1164,-0.116,-0.1216,-0.1216,-0.1217,-0.1232,0,-0.1178,-0.1138,-0.1099,-0.1099,-0.1068,-0.1054,-0.1085,-0.1106,-0.1123,-0.1167,-0.1172,-0.121,-0.1197,-0.1221,-0.1221,-0.1224,-0.1229,-0.1218,-0.121,-0.121,-0.1141,-0.1161,-0.1218,-0.1234,-0.1235,-0.1235,-0.1235,0,-0.116,-0.1143,-0.1139,-0.1152,-0.1139,-0.1147,-0.1201,-0.1218,-0.1252,-0.1269,-0.1297,-0.1294,-0.1312,-0.1273,-0.1281,-0.128,-0.1268,-0.1251,-0.1251,-0.1172,-0.1143,-0.12,-0.124,-0.124,-0.1239,-0.1239,-0.1239,0,-0.1206,-0.1182,-0.1201,-0.1185,-0.1174,-0.1217,-0.1232,-0.1268,-0.1286,-0.1326,-0.1325,-0.136,-0.1349,-0.1344,-0.1302,-0.1302,-0.1288,-0.1278,-0.1207,-0.1203,-0.1246,-0.1242,-0.1282,-0.1282,-0.1282,-0.1282,-0.1282,0,-0.1212,-0.1227,-0.1222,-0.1214,-0.126,-0.1255,-0.1308,-0.1332,-0.1353,-0.1352,-0.1372,-0.1354,-0.1361,-0.1344,-0.1325,-0.1266,-0.1305,-0.1215,-0.12,-0.1263,-0.126,-0.1249,-0.1244,-0.1282,-0.1282,-0.1282,-0.1282,0,-0.1223,-0.1222,-0.1235,-0.1254,-0.1265,-0.1293,-0.1309,-0.1329,-0.1356,-0.1349,-0.135,-0.1349,-0.1324,-0.1326,-0.1309,-0.127,-0.1236,-0.121,-0.1285,-0.1273,-0.1153,-0.1151,-0.1142,-0.114,-0.1138,-0.1136,-0.1135,0,-0.1202,-0.1214,-0.1248,-0.126,-0.1263,-0.1293,-0.1304,-0.1328,-0.1319,-0.1317,-0.1294,-0.1291,-0.1282,-0.12,-0.1221,-0.1204,-0.1186,-0.1175,-0.1161,-0.1152,-0.1138,-0.1139,-0.114,-0.1131,-0.1131,-0.113,-0.113,0,-0.1175,-0.121,-0.1219,-0.1231,-0.1248,-0.1253,-0.1259,-0.1248,-0.1253,-0.1282,-0.1202,-0.1176,-0.1152,-0.114,-0.1137,-0.1118,-0.1185,-0.1153,-0.1158,-0.1144,-0.1138,-0.1127,-0.113,-0.1123,-0.1124,-0.1124,-0.1125,0,-0.1157,-0.1162,-0.118,-0.1179,-0.1203,-0.1185,-0.1206,-0.1165,-0.1153,-0.1144,-0.1114,-0.1107,-0.1126,-0.1094,-0.1081,-0.107,-0.1059,-0.103,-0.104,-0.1049,-0.101,-0.0989,-0.0915,0,0,0,0,0,-0.1119,-0.1113,-0.1115,-0.1102,-0.1123,-0.1119,-0.1149,-0.1165,-0.1169,-0.1087,-0.1093,-0.1059,-0.1022,-0.1024,-0.0995,-0.1068,-0.1087,-0.1033,-0.1065,-0.1083,-0.1091,-0.1055,0,0,0,0,0,0,-0.109,-0.1109,-0.1086,-0.1024,-0.0998,-0.0992,-0.1011,-0.1027,-0.0981,-0.1,-0.0985,-0.0995,-0.0983,-0.1014,-0.0965,-0.0972,-0.0975,-0.104,-0.1038,-0.1078,-0.1086,-0.1092,-0.1058,0,0,0,0,0]},{"header":{"parameterUnit":"m.s-1","parameterCategory":2,"la1":30.2991,"la2":30.254,"lo1":-89.0895,"lo2":-89.0444,"dy":0.0017,"dx":0.0017,"nx":28,"ny":28,"refTime":"2024-06-10T03:00:00:Z","depth":"4","parameterNumber":3,"parameterNumberName":"V-component_of_CURRENTS"},"data":[0,0,0,0,0,0,0,0,0,0,0,0,0,0,0,0,0,0,0,0,0,0,0,0,0,0,0,0,0,0,0,0,0,0,0,0,0,0,0,0,0,0,0,0,0,0,0,0,0,0,0,0,0,0,0,0,0,0,-0.0215,-0.0215,0,-0.0277,-0.0277,-0.0278,-0.0276,-0.0275,-0.0275,-0.0274,-0.0201,-0.0199,-0.0198,0,0,0,0,0,0,0,0,0,0,0,0,0,-0.0162,-0.0162,-0.0214,-0.0215,-0.0217,-0.0277,-0.0277,-0.0278,-0.0276,-0.0275,-0.0275,-0.0274,-0.0201,-0.02,-0.0198,0,0,0,0,0,0,0,0,0,0,0,0,0,-0.0198,-0.0162,-0.0214,-0.0225,-0.0227,-0.0277,-0.0277,-0.0278,-0.0276,-0.0275,-0.0275,-0.0274,-0.0202,-0.02,-0.0198,-0.0203,0,0,-0.0191,-0.019,0,0,0,0,0,0,0,0,-0.0196,-0.0199,-0.0222,-0.0224,-0.0226,-0.027,-0.0232,-0.0247,-0.0277,-0.0255,-0.0274,-0.0273,-0.0214,-0.0211,-0.0222,-0.0199,-0.0196,-0.0191,-0.019,-0.0189,-0.0188,0,0,0,0,0,0,0,-0.0193,-0.0197,-0.0236,-0.0224,-0.0226,-0.025,-0.0253,-0.0236,-0.0234,-0.0256,-0.0257,-0.0269,-0.0213,-0.0225,-0.022,-0.0195,-0.0191,-0.0189,-0.0188,-0.0187,-0.0163,-0.0163,0,0,0,0,0,0,-0.0189,-0.0194,-0.0234,-0.0238,-0.0212,-0.0252,-0.0255,-0.0255,-0.0237,-0.0235,-0.027,-0.0269,-0.0229,-0.0223,-0.0217,-0.0189,-0.0189,-0.0187,-0.0186,-0.0162,-0.0163,-0.0164,0,0,0,0,0,0,-0.0187,-0.0191,-0.0232,-0.0221,-0.0228,-0.0253,-0.0253,-0.0257,-0.0263,-0.0249,-0.0244,-0.0272,-0.0228,-0.022,-0.019,-0.0187,-0.0186,-0.0184,-0.0162,-0.0163,-0.0163,-0.0152,0,0,0,0,0,0,-0.0185,-0.019,-0.0186,-0.022,-0.0229,-0.0257,-0.0255,-0.0259,-0.0273,-0.0272,-0.0249,-0.0242,-0.0226,-0.0193,-0.0188,-0.0184,-0.0182,-0.0161,-0.0162,-0.0163,-0.0152,-0.0153,-0.0153,0,0,0,0,0,-0.0183,-0.0182,-0.0185,-0.019,-0.0222,-0.0258,-0.0264,-0.0278,-0.0274,-0.0279,-0.0255,-0.0243,-0.0197,-0.0191,-0.0185,-0.018,-0.016,-0.0162,-0.0163,-0.0151,-0.0152,-0.0153,0,0,0,0,0,0,-0.017,-0.0183,-0.0187,-0.0193,-0.0222,-0.0258,-0.0267,-0.0278,-0.0269,-0.0262,-0.0239,-0.023,-0.0209,-0.02,-0.0194,-0.0182,-0.0182,-0.0182,-0.0175,-0.0176,-0.0177,-0.0134,-0.0181,0,0,0,0,0,-0.0163,-0.0163,-0.0188,-0.0201,-0.0207,-0.0236,-0.0251,-0.0266,-0.0269,-0.0266,-0.0245,-0.0228,-0.0215,-0.0197,-0.0188,-0.0168,-0.0121,-0.0168,-0.0169,-0.0169,-0.0134,-0.0072,-0.0062,-0.0168,-0.0168,-0.0168,0,0,-0.0171,-0.0177,-0.0181,-0.0199,-0.0218,-0.023,-0.0242,-0.027,-0.0274,-0.0257,-0.0236,-0.0228,-0.0213,-0.0197,-0.0187,-0.0182,-0.0118,-0.0171,-0.0171,-0.0134,-0.0072,-0.0061,-0.0051,-0.0169,-0.0169,-0.0169,0,0,-0.0183,-0.0181,-0.0178,-0.019,-0.0216,-0.0235,-0.024,-0.0265,-0.0262,-0.0261,-0.0245,-0.0219,-0.0214,-0.0183,-0.0173,-0.0171,-0.013,-0.0191,-0.0146,-0.0088,-0.0077,-0.0067,0.0004,0.002,-0.0184,-0.0184,-0.0184,0,-0.0191,-0.0184,-0.019,-0.0188,-0.0192,-0.0231,-0.0231,-0.0246,-0.0258,-0.0231,-0.0254,-0.0207,-0.0202,-0.0146,-0.0153,-0.0167,-0.0124,-0.0141,-0.0084,-0.0073,-0.0063,0.0007,0.0025,-0.0184,-0.0184,-0.0184,-0.0184,0,-0.0199,-0.0187,-0.019,-0.0188,-0.0194,-0.0212,-0.0223,-0.0219,-0.0228,-0.0228,-0.0186,-0.0177,-0.0137,-0.0152,-0.0151,-0.0081,-0.0071,-0.0096,-0.0071,-0.005,0.0021,0.0039,-0.0183,-0.0183,-0.0183,-0.0183,0,0,-0.0235,-0.0199,-0.0199,-0.0183,-0.019,-0.0203,-0.0186,-0.0172,-0.015,-0.0156,-0.0107,-0.0092,-0.0075,-0.0061,-0.0057,-0.0007,0.0083,-0.0018,-0.0015,0.0072,0.0233,0.0184,0.02,0.0069,0.0072,0.0074,0.0254,0,-0.0241,-0.0222,-0.0197,-0.0188,-0.0179,-0.0168,-0.015,-0.0137,-0.013,-0.0097,-0.0066,-0.0043,-0.0048,-0.0037,0.002,0.005,0.0133,0.0039,0.0185,0.019,0.016,0.022,0.0084,0.0268,0.0272,0.0276,0.0278,0,-0.0256,-0.0235,-0.0214,-0.0163,-0.0155,-0.0158,-0.0113,-0.0102,-0.0052,-0.0036,0.0022,0.003,0.0108,0.0074,0.0216,0.0154,0.0218,0.025,0.0256,0.0231,0.0176,0.0241,0.0312,0.0309,0.0307,0.0304,0.0302,0,-0.029,-0.0244,-0.0224,-0.0214,-0.0173,-0.0149,-0.0132,-0.0084,-0.0058,0.0003,0.0025,0.0117,0.014,0.0239,0.0296,0.0266,0.0444,0.0404,0.0448,0.0445,0.0431,0.0419,0.0553,0.0553,0.0552,0.0552,0.0551,0,-0.0305,-0.0292,-0.0243,-0.0241,-0.0218,-0.017,-0.0144,-0.0106,-0.0046,-0.0001,0.005,0.0101,0.0179,0.027,0.0343,0.0452,0.0494,0.0496,0.0499,0.0427,0.0412,0.0445,0.043,0.0559,0.0557,0.0556,0.0555,0,-0.035,-0.0317,-0.0302,-0.0253,-0.0242,-0.0233,-0.0181,-0.0159,-0.0088,-0.0026,-0.0005,0.0096,0.0211,0.0307,0.0455,0.0494,0.0604,0.0645,0.0589,0.0577,0.0566,0.0549,0.0728,0.0728,0.0728,0.0728,0.0728,0,-0.0365,-0.0363,-0.0338,-0.0344,-0.0329,-0.0306,-0.0294,-0.0209,-0.0167,-0.0021,0.0011,0.0133,0.0205,0.0395,0.0483,0.0648,0.0652,0.0723,0.0639,0.0605,0.059,0.0572,0.0556,0.0728,0.0728,0.0728,0.0728,0,-0.0402,-0.0407,-0.0402,-0.0416,-0.0414,-0.0391,-0.0348,-0.0311,-0.0184,-0.012,0.0036,0.0147,0.0277,0.0394,0.0515,0.0628,0.0672,0.0723,0.0724,0.0645,0.0607,0.0588,0.0572,0.0728,0.0728,0.0728,0.0728,0,-0.0442,-0.0465,-0.0474,-0.0483,-0.0484,-0.0459,-0.0424,-0.0331,-0.0259,-0.0065,-0.0014,0.0149,0.0253,0.0389,0.0507,0.0596,0.0607,0.0621,0.0627,0.0628,0.0512,0.0444,0.0556,0,0,0,0,0,-0.0474,-0.0514,-0.0536,-0.0536,-0.0535,-0.0535,-0.045,-0.0394,-0.0255,-0.0153,-0.0068,0.0067,0.0256,0.0339,0.0421,0.0472,0.0594,0.0568,0.0604,0.0729,0.0729,0.0601,0,0,0,0,0,0,-0.0502,-0.0542,-0.0555,-0.0573,-0.0593,-0.0577,-0.0531,-0.0436,-0.0348,-0.0201,-0.0105,0.0034,0.02,0.0176,0.0392,0.0428,0.0455,0.0677,0.0679,0.0729,0.0729,0.0729,0.0598,0,0,0,0,0]}]]